Regional Weather Roundup
Issued by NWS

Home | Current Version | Previous Version | Graphics & Text | Print | Product List | Glossary On
Versions: 1 2 3 4 5 6 7 8 9 10 11 12 13 14 15 16 17 18 19 20 21 22 23 24 25 26 27 28 29 30 31 32 33 34 35 36 37 38 39 40 41 42 43 44 45 46 47 48 49 50
000
ASUS43 KDMX 311007
RWRIA

WEATHER ROUNDUP FOR IOWA
NATIONAL WEATHER SERVICE DES MOINES IA
500 AM CDT MON AUG 31 2015

NOTE: "FAIR" INDICATES FEW OR NO CLOUDS BELOW 12,000 FEET WITH NO
SIGNIFICANT WEATHER AND/OR OBSTRUCTIONS TO VISIBILITY.

* - THESE STATIONS ARE NOT NWS STATIONS...THUS NOT UNDER NWS
QUALITY CONTROL.  THEY ALSO DO NOT REPORT WEATHER SUCH
AS PRECIPITATION OR FOG.

IAZ001>003-012>014-020>022-031>034-043>046-311100-
   NORTHWEST IOWA

CITY           SKY/WX    TMP DP  RH WIND       PRES   REMARKS
CARROLL *      FOG       59  59 100 SE5       29.97S VSB<1/4
CHEROKEE *     CLEAR     63  63 100 S5        29.95S FOG
DENISON *      CLOUDY    64  64 100 E3        29.94S FOG
LE MARS *      CLEAR     66  66 100 S8        29.93S FOG
ORANGE CITY *    N/A     64  64 100 S7        29.93S FOG
SHELDON *      CLOUDY    66  64  94 S7        29.92S FOG
SPENCER        CLEAR     64  61  90 S7        29.95S FOG
STORM LAKE *   FOG       63  63 100 S9        29.97S VSB 1/2
$$

IAZ055>058-069>071-079>083-090>094-311100-
   SOUTHWEST IOWA

CITY           SKY/WX    TMP DP  RH WIND       PRES   REMARKS
ATLANTIC *     MOCLDY    59  59 100 CALM      29.97S FOG
AUDUBON *      FOG       57  55  94 CALM      29.98S VSB 1/2
CLARINDA *     CLEAR     63  63 100 CALM      29.98R FOG
COUNCIL BLFS *   N/A     66  66 100 SE7       29.95S FOG
CRESTON *      PTCLDY    64  64 100 SE6       29.99F FOG
HARLAN  *      FOG       59 N/A N/A CALM      29.99S VSB<1/4
LAMONI         CLEAR     69  67  93 E5        29.98S
RED OAK *      FOG       61  61 100 CALM      29.96S VSB 1/2
SHENANDOAH *   FOG       63  63 100 CALM      29.96R VSB<1/4
$$

IAZ047>049-059>061-072>074-084-311100-
   CENTRAL IOWA

CITY           SKY/WX    TMP DP  RH WIND       PRES   REMARKS
AMES           FOG       63  63 100 SE3       29.99S VSB 1/4
ANKENY *       FOG       61  61 100 CALM      29.98S VSB 1/2
CHARITON *     MOCLDY    68  66  94 SE6       29.99S
DES MOINES     PTCLDY    69  65  86 SE6       29.97F
GRINNELL*        N/A     63  62  97 E5        30.01S FOG
KNOXVILLE *    CLEAR     66  64  94 SE5       29.98S FOG
MARSHALLTOWN   FOG       60  60 100 SE6       29.99S VSB 1/4
PELLA *          N/A     65  65 100 E5        30.01R FOG
PERRY *        FOG       62  61  99 E5        29.98S VSB 1/4
$$

IAZ004>006-015-016-023>025-035-036-311100-
   NORTH CENTRAL IOWA

CITY           SKY/WX    TMP DP  RH WIND       PRES   REMARKS
ALGONA *       FOG       64  64 100 S9G15     29.97S VSB 1/4
CLARION *      CLOUDY    64  64 100 S6        29.99R FOG
ESTHERVILLE    FOG       62  62 100 S10       29.95R VSB 1/2
FORT DODGE *   CLEAR     61  57  88 SE3       29.98S
MASON CITY     FOG       60  60 100 S3        30.01R VSB 1/4
FOREST CITY *  FOG       63  63 100 S5        29.99S VSB 1/4
IOWA FALLS *   FOG       62  61  97 CALM      30.01S VSB 1/4
$$

IAZ007>011-017>019-026>030-037>042-050>054-066-311100-
   NORTHEAST IOWA

CITY           SKY/WX    TMP DP  RH WIND       PRES   REMARKS
CEDAR RAPIDS   CLEAR     60  60 100 E5        30.01S FOG
CHARLES CITY * FOG       63  63 100 S6        30.01S VSB 1/2
CLINTON *        N/A     57  57 100 E6        30.05S VSB 1/4
DECORAH *      CLOUDY    63  63 100 S5        30.00S FOG
DUBUQUE        PTCLDY    58  57  97 S5        30.04S
MONTICELLO *   FOG       55  55 100 CALM      30.03R VSB<1/4
OELWEIN *      FOG       59  59 100 SE6       30.02S VSB 1/4
WATERLOO       CLEAR     57  57 100 E3        30.00S FOG
$$

IAZ064-065-067-068-078-311100-
   EAST CENTRAL IOWA

CITY           SKY/WX    TMP DP  RH WIND       PRES   REMARKS
DAVENPORT      CLEAR     61  60  97 E5        30.03R FOG
IOWA CITY      FOG       61  60  97 CALM      30.02S VSB 3/4
MT. PLEASANT * CLEAR     66  63  89 CALM      30.01R FOG
MUSCATINE *    FOG       61  61 100 CALM      30.02S VSB 3/4
QUAD CITIES    CLEAR     61  59  93 E3        30.02S FOG
$$

IAZ062-063-075>077-085>089-095>099-311100-
   SOUTHEAST IOWA

CITY           SKY/WX    TMP DP  RH WIND       PRES   REMARKS
BURLINGTON     CLEAR     68  67  96 E3        30.01R
FAIRFIELD *    FOG       63  63 100 CALM      30.01R VSB 1/4
FORT MADISON *   N/A     64  64 100 CALM      30.01S FOG
KEOKUK *       CLEAR     66  66 100 E3        30.00R FOG
OSKALOOSA *      N/A     64  64  97 SE5       30.00S FOG
CENTERVILLE *    N/A     64  64 100 E3        30.01S
OTTUMWA        FOG       63  63 100 E5        29.98S VSB 1/2
WASHINGTON *     N/A    N/A N/A N/A MISG        N/A
$$

ABBREVIATIONS USED IN REMARKS
   TC - TEMPERATURES IN CELSIUS
  WCI - WIND CHILL INDEX
   HX - HEAT INDEX
  VSB - VISIBILITY
$$




USA.gov is the U.S. government's official web portal to all federal, state and local government web resources and services.